Weather in Kluang

Malaysia     2°02′10″N   103°17′30″E
temp.,
°C
wind,
m/s
gust,
m/s
humid.,
%
clouds,
%
prec.,
mm/h
press.,
hPa
HPBL,
m
9 may, sun
sun923:00+25ene229298 0.3 101041
02:00+25ne129287 0.3 100839
05:00+24nne119299 0.0 100713
08:00+25nne119091 0.0 101072
11:00+29nne127747 2.1 1010553
14:00+32sse016026 4.4 10071334
17:00+32sse115987 0.3 10051294
20:00+26nne018747 1.8 100711
10 may, mon
mon1023:00+24se009693 4.0 100913
02:00+24ene119673 4.5 100819
05:00+24ne11965 0.1 100714
08:00+25ene11935 0.1 100866
11:00+30ene127199 0.5 1009596
14:00+30sw1172100 4.0 1007883
17:00+28se1287100 5.1 1006103
20:00+26e119098 6.0 100811
11 may, tue
tue1123:00+25ene129342 0.0 100928
02:00+24e119579 0.0 100712
05:00+24ene119694 0.0 100611
08:00+25nne00930 0.0 100861
11:00+31se01676 0.0 1008881
14:00+33s225960 1.2 10051364
17:00+30s1372100 0.8 1004339
20:00+26ene118958 2.6 100717
12 may, wed
wed1223:00+25nne1294100 0.3 100831
02:00+25ene119499 0.3 100714
05:00+24nne1195100 0.0 100616
08:00+25nne1192100 0.0 100885
11:00+29e017884 3.1 1008400
14:00+31wsw2173100 6.5 1006955
17:00+29sw127843 4.2 1005684
20:00+25ssw1193100 9.4 100616
13 may, thu
thu1323:00+25sw0093100 2.4 100811
02:00+25nw1194100 2.4 100611
05:00+24nw009542 0.0 100611
08:00+25w119360 0.2 100769
11:00+30wsw117030 0.0 1008804
14:00+32wsw2166100 0.8 10051260
17:00+29sw1280100 4.1 1004172
20:00+26e119075 5.7 100612